Flag for Canada Weather past 2 weeks in Lethbridge, Alberta, Canada

Now
61 °F

Scattered clouds.


Feels Like: 61 °F
Forecast: 44 / 75 °F
Wind: 9 mph from South

Location: Lethbridge

Current Time: May 24, 2015 at 10:37:05 PM

Latest Report: May 24, 2015 at 9:00 PM


Visibility: 25 mi

Pressure: 29.93 "Hg

Humidity: 45%

Dew point: 39 °F

Location of LethbridgeLocation

Historic Weather in Lethbridge — Graph

°F

Lethbridge temperature yesterday

Maximum temperature yesterday: 75 °F (at 5:00 PM)
Minimum temperature yesterday: 39 °F (at 5:00 AM)
Average temperature yesterday: 58 °F

Past Weeks' High & Low Weather Summary

 TemperatureHumidityPressure
High75 °F (May 23, 5:00 PM)100% (May 14, 11:00 AM)30.45 "Hg (May 14, 11:00 AM)
Low27 °F (May 12, 6:00 AM)19% (May 23, 5:00 PM)29.84 "Hg (May 16, 2:00 AM)
Average49 °F61%30.12 "Hg
* Reported May 9 8:00 PM — May 24 8:00 PM, Lethbridge, Weather by CustomWeather, © 2015

Note: Actual official high and low records may vary slightly from our data, if they occured in-between our weather recording intervals... More about our weather records

Advertising

Lethbridge weather history for previous 24 hours

 ConditionsComfort  
Time TempWeatherWind HumidityBarometerVisibility
8:00 PM
Sun, May 24
66 °FScattered clouds.17 mph35%29.93 "Hg25 mi
7:00 PM68 °FScattered clouds.17 mph33%29.96 "Hg25 mi
6:00 PM72 °FScattered clouds.20 mph29%29.97 "Hg25 mi
5:00 PM72 °FPartly sunny.9 mph29%29.99 "Hg25 mi
4:00 PM72 °FPartly sunny.16 mph27%30.00 "Hg25 mi
3:00 PM70 °FPartly sunny.10 mph29%30.03 "Hg25 mi
2:00 PM72 °FScattered clouds.21 mph25%30.03 "Hg40 mi
1:00 PM68 °FBroken clouds.10 mph33%30.05 "Hg40 mi
12:00 PM68 °FBroken clouds.9 mph38%30.06 "Hg40 mi
11:00 AM66 °FScattered clouds.8 mph37%30.07 "Hg40 mi
10:00 AM63 °FScattered clouds.7 mph52%30.09 "Hg40 mi
9:00 AM59 °FPassing clouds.6 mph55%30.10 "Hg40 mi
8:00 AM52 °FPartly sunny.7 mph67%30.09 "Hg40 mi
7:00 AM45 °FScattered clouds.8 mph87%30.11 "Hg40 mi
6:00 AM39 °FPassing clouds.10 mph93%30.11 "Hg40 mi
5:00 AM41 °FClear.5 mph87%30.10 "Hg9 mi
4:00 AM41 °FClear.2 mph81%30.11 "Hg9 mi
3:00 AM41 °FClear.3 mph87%30.13 "Hg9 mi
2:00 AM43 °FClear.9 mph81%30.12 "Hg9 mi
1:00 AM45 °FClear.7 mph76%30.12 "Hg9 mi
12:00 AM46 °FClear.10 mph71%30.11 "Hg9 mi
11:00 PM
Sat, May 23
52 °FClear.10 mph58%30.10 "Hg9 mi
10:00 PM54 °FPassing clouds.9 mph54%30.09 "Hg15 mi
Weather by CustomWeather, © 2015

See weather overviewHow to use our weather pages